| time (UTC) | temp F | wind direction | speed knots | gust knots | rain 1hr in | rain 24hr in | rain mn in | humidity % | barometer mb |
| 20260507075326 | 46 | 309 | 0.0 | 0.0 | 0.00 | 0.48 | 0.00 | 92 | 1010.5 |
| 20260507074323 | 46 | 309 | 0.0 | 0.0 | 0.00 | 0.48 | 0.00 | 91 | 1010.4 |
| 20260507073346 | 46 | 309 | 0.0 | 0.0 | 0.00 | 0.48 | 0.00 | 88 | 1010.6 |
| 20260507072322 | 47 | 309 | 0.0 | 0.0 | 0.00 | 0.48 | 0.00 | 86 | 1010.7 |
| 20260507071322 | 47 | 309 | 0.0 | 0.0 | 0.00 | 0.48 | 0.00 | 88 | 1010.7 |
| 20260507070321 | 48 | 309 | 0.0 | 0.0 | 0.00 | 0.48 | 0.00 | 92 | 1010.7 |
| 20260507065340 | 49 | 309 | 0.9 | 4.3 | 0.00 | 0.48 | 0.00 | 94 | 1011.1 |
| 20260507064324 | 49 | 317 | 0.0 | 0.0 | 0.00 | 0.48 | 0.00 | 94 | 1010.8 |
| 20260507063322 | 49 | 321 | 0.0 | 0.0 | 0.00 | 0.48 | 0.00 | 94 | 1010.9 |
| 20260507062326 | 49 | 321 | 0.0 | 0.0 | 0.00 | 0.48 | 0.00 | 94 | 1010.8 |
| 20260507061325 | 49 | 321 | 0.0 | 0.0 | 0.00 | 0.48 | 0.00 | 95 | 1011.0 |
| 20260507060323 | 49 | 320 | 0.0 | 0.0 | 0.00 | 0.48 | 0.00 | 95 | 1012.0 |
| 20260507055401 | 49 | 320 | 0.0 | 0.0 | 0.00 | 0.48 | 0.00 | 95 | 1010.3 |
| 20260507054337 | 49 | 320 | 0.0 | 3.5 | 0.00 | 0.48 | 0.00 | 96 | 1010.5 |
| 20260507053346 | 49 | 328 | 0.0 | 0.0 | 0.00 | 0.48 | 0.00 | 96 | 1010.8 |
| 20260507052323 | 49 | 30 | 0.0 | 0.0 | 0.00 | 0.48 | 0.00 | 96 | 1010.2 |
| 20260507051322 | 49 | 30 | 0.0 | 0.0 | 0.00 | 0.48 | 0.00 | 97 | 1010.6 |
| 20260507050327 | 49 | 30 | 0.0 | 0.0 | 0.00 | 0.48 | 0.00 | 97 | 1010.2 |
| 20260507045345 | 49 | 31 | 0.0 | 0.0 | 0.00 | 0.48 | 0.00 | 97 | 1010.1 |
| 20260507044323 | 49 | 31 | 0.0 | 0.0 | 0.00 | 0.48 | 0.00 | 97 | 1010.4 |
| 20260507043321 | 49 | 31 | 0.0 | 0.0 | 0.00 | 0.48 | 0.00 | 96 | 1010.1 |
| 20260507042322 | 50 | 31 | 0.0 | 0.0 | 0.00 | 0.48 | 0.00 | 96 | 1010.2 |
| 20260507041326 | 50 | 31 | 0.0 | 0.0 | 0.00 | 0.48 | 0.00 | 96 | 1010.1 |
| 20260507040325 | 50 | 31 | 0.0 | 0.0 | 0.00 | 0.48 | 0.00 | 96 | 946.9 |
| 20260507035322 | 50 | 31 | 0.0 | 0.0 | 0.00 | 0.48 | 0.48 | 96 | 1010.2 |
| 20260507034340 | 49 | 31 | 0.0 | 0.0 | 0.00 | 0.48 | 0.48 | 96 | 1010.8 |
| 20260507033339 | 49 | 31 | 0.0 | 0.0 | 0.00 | 0.48 | 0.48 | 95 | 1010.9 |
| 20260507032337 | 50 | 31 | 0.0 | 0.0 | 0.00 | 0.48 | 0.48 | 95 | 1010.3 |
| 20260507031324 | 50 | 31 | 0.0 | 0.0 | 0.00 | 0.48 | 0.48 | 95 | 1010.1 |
| 20260507030342 | 50 | 31 | 0.0 | 0.0 | 0.00 | 0.48 | 0.48 | 94 | 1014.0 |
| 20260507025326 | 50 | 30 | 0.0 | 0.0 | 0.00 | 0.48 | 0.48 | 94 | 1009.9 |
| 20260507024325 | 51 | 30 | 0.0 | 0.0 | 0.00 | 0.48 | 0.48 | 94 | 1010.3 |
| 20260507023324 | 50 | 30 | 0.0 | 0.0 | 0.00 | 0.48 | 0.48 | 94 | 1010.5 |
| 20260507022322 | 51 | 31 | 0.0 | 0.0 | 0.00 | 0.48 | 0.48 | 94 | 1011.4 |
| 20260507021359 | 51 | 30 | 0.0 | 0.0 | 0.00 | 0.48 | 0.48 | 94 | 1010.8 |
| 20260507020322 | 51 | 31 | 0.0 | 0.0 | 0.00 | 0.48 | 0.48 | 94 | 1010.8 |
| 20260507015326 | 51 | 31 | 0.0 | 0.0 | 0.00 | 0.48 | 0.48 | 94 | 1010.7 |
| 20260507014323 | 51 | 31 | 0.0 | 0.0 | 0.00 | 0.48 | 0.48 | 93 | 1010.8 |
| 20260507013327 | 51 | 31 | 0.0 | 0.0 | 0.00 | 0.48 | 0.48 | 92 | 1010.7 |
| 20260507012325 | 51 | 31 | 0.0 | 0.0 | 0.00 | 0.48 | 0.48 | 91 | 1012.2 |
| 20260507011322 | 51 | 30 | 0.0 | 0.0 | 0.00 | 0.48 | 0.48 | 93 | 1011.6 |
| 20260507010321 | 51 | 30 | 0.0 | 0.0 | 0.00 | 0.48 | 0.48 | 91 | 1010.5 |
| 20260507005324 | 51 | 31 | 0.0 | 0.0 | 0.00 | 0.48 | 0.48 | 91 | 949.7 |
| 20260507004344 | 52 | 31 | 0.0 | 0.0 | 0.00 | 0.48 | 0.48 | 92 | 1010.2 |
| 20260507003340 | 52 | 31 | 0.0 | 0.0 | 0.00 | 0.48 | 0.48 | 92 | 1010.1 |
| 20260507002339 | 52 | 31 | 0.0 | 0.0 | 0.00 | 0.48 | 0.48 | 92 | 1010.0 |
| 20260507001337 | 52 | 31 | 0.0 | 0.0 | 0.00 | 0.48 | 0.48 | 92 | 1009.7 |
| 20260507000336 | 52 | 31 | 0.0 | 0.0 | 0.00 | 0.48 | 0.48 | 92 | 1010.0 |
| 20260506235328 | 53 | 26 | 0.0 | 0.0 | 0.00 | 0.48 | 0.48 | 92 | 1009.2 |
| 20260506234332 | 53 | 26 | 0.0 | 0.0 | 0.00 | 0.48 | 0.48 | 91 | |
| 20260506233330 | 53 | 26 | 0.0 | 4.3 | 0.00 | 0.48 | 0.48 | 91 | 1008.8 |
| 20260506232350 | 54 | 46 | 0.0 | 2.6 | 0.00 | 0.48 | 0.48 | 92 | 1008.6 |
| 20260506231346 | 53 | 47 | 0.9 | 5.2 | 0.00 | 0.48 | 0.48 | 91 | 1008.4 |
| 20260506230325 | 54 | 49 | 2.6 | 3.5 | 0.00 | 0.48 | 0.48 | 91 | 1008.5 |
| 20260506225324 | 54 | 347 | 0.9 | 5.2 | 0.00 | 0.48 | 0.48 | 92 | 1008.2 |
| 20260506224343 | 55 | 323 | 0.0 | 0.0 | 0.03 | 0.48 | 0.48 | 93 | 1008.1 |
| 20260506223341 | 55 | 323 | 0.0 | 0.0 | 0.03 | 0.48 | 0.48 | 93 | 1007.9 |
| 20260506222337 | 55 | 323 | 0.0 | 0.0 | 0.03 | 0.48 | 0.48 | 92 | 1007.8 |
| 20260506221346 | 56 | 323 | 0.0 | 0.0 | 0.03 | 0.48 | 0.48 | 92 | 1007.7 |
| 20260506220324 | 56 | 322 | 1.7 | 8.7 | 0.03 | 0.48 | 0.48 | 91 | 1007.1 |
| 20260506215321 | 59 | 345 | 6.1 | 14.8 | 0.03 | 0.48 | 0.48 | 88 | 1006.6 |
| 20260506214344 | 64 | 271 | 4.3 | 9.6 | 0.00 | 0.45 | 0.45 | 91 | 1005.9 |
| 20260506213323 | 64 | 266 | 4.3 | 7.0 | 0.00 | 0.45 | 0.45 | 91 | 1005.8 |
| 20260506212322 | 64 | 283 | 0.0 | 6.1 | 0.00 | 0.45 | 0.45 | 93 | 1005.8 |
| 20260506211320 | 63 | 257 | 1.7 | 7.8 | 0.00 | 0.45 | 0.45 | 93 | 1005.6 |
| 20260506210324 | 63 | 248 | 2.6 | 8.7 | 0.00 | 0.45 | 0.45 | 93 | 1005.4 |
| 20260506205323 | 64 | 254 | 5.2 | 9.6 | 0.00 | 0.45 | 0.45 | 91 | 1001.4 |
| 20260506204342 | 65 | 210 | 4.3 | 8.7 | 0.00 | 0.45 | 0.45 | 89 | 1004.8 |
| 20260506203324 | 64 | 217 | 5.2 | 9.6 | 0.00 | 0.45 | 0.45 | 89 | 941.9 |
| 20260506202401 | 64 | 219 | 5.2 | 9.6 | 0.00 | 0.45 | 0.45 | 89 | 1006.7 |
| 20260506201332 | 64 | 201 | 5.2 | 10.4 | 0.00 | 0.45 | 0.45 | 92 | 970.7 |
| 20260506200322 | 64 | 200 | 7.0 | 10.4 | 0.00 | 0.45 | 0.45 | 90 | 1005.2 |
| 20260506195321 | 64 | 242 | 3.5 | 9.6 | 0.00 | 0.45 | 0.45 | 90 | 1006.6 |
| 20260506194343 | 64 | 267 | 3.5 | 9.6 | 0.00 | 0.45 | 0.45 | 92 | 1005.3 |
| 20260506193327 | 63 | 193 | 3.5 | 8.7 | 0.00 | 0.45 | 0.45 | 92 | 1005.4 |
| 20260506192325 | 63 | 251 | 2.6 | 10.4 | 0.00 | 0.45 | 0.45 | 92 | 1005.5 |
| 20260506191324 | 63 | 248 | 6.1 | 9.6 | 0.00 | 0.45 | 0.45 | 92 | 1005.7 |
| 20260506190322 | 63 | 221 | 4.3 | 12.2 | 0.00 | 0.45 | 0.45 | 92 | 1005.6 |
| 20260506185340 | 63 | 217 | 4.3 | 12.2 | 0.00 | 0.45 | 0.45 | 92 | 1005.4 |
| 20260506184337 | 64 | 244 | 4.3 | 9.6 | 0.00 | 0.45 | 0.45 | 93 | 1005.5 |
| 20260506183326 | 63 | 223 | 6.1 | 14.8 | 0.00 | 0.45 | 0.45 | 93 | 1005.6 |
| 20260506182325 | 62 | 234 | 4.3 | 8.7 | 0.00 | 0.45 | 0.45 | 95 | 1005.7 |
| 20260506181323 | 62 | 195 | 4.3 | 11.3 | 0.00 | 0.45 | 0.45 | 94 | 1005.9 |
| 20260506180322 | 62 | 275 | 5.2 | 12.2 | 0.00 | 0.45 | 0.45 | 96 | 1005.9 |
| 20260506175321 | 62 | 242 | 3.5 | 9.6 | 0.00 | 0.45 | 0.45 | 96 | 1005.9 |
| 20260506174339 | 62 | 191 | 4.3 | 9.6 | 0.01 | 0.45 | 0.45 | 96 | 1009.0 |
| 20260506173327 | 62 | 171 | 6.1 | 12.2 | 0.01 | 0.45 | 0.45 | 96 | 1005.7 |
| 20260506172324 | 61 | 202 | 5.2 | 10.4 | 0.01 | 0.45 | 0.45 | 96 | 1005.8 |
| 20260506171342 | 61 | 186 | 6.1 | 11.3 | 0.01 | 0.45 | 0.45 | 96 | 1005.9 |
| 20260506170325 | 61 | 225 | 6.1 | 8.7 | 0.01 | 0.45 | 0.45 | 96 | 1005.9 |
| 20260506165324 | 60 | 208 | 6.1 | 10.4 | 0.02 | 0.45 | 0.45 | 96 | 1006.1 |
| 20260506164323 | 60 | 219 | 6.1 | 8.7 | 0.02 | 0.44 | 0.44 | 96 | 1006.0 |
| 20260506163400 | 60 | 197 | 7.8 | 12.2 | 0.03 | 0.44 | 0.44 | 95 | 1006.0 |
| 20260506162343 | 60 | 184 | 5.2 | 9.6 | 0.04 | 0.44 | 0.44 | 96 | 1006.1 |
| 20260506161323 | 60 | 215 | 4.3 | 9.6 | 0.06 | 0.44 | 0.44 | 96 | 1006.1 |
| 20260506160321 | 60 | 203 | 4.3 | 8.7 | 0.08 | 0.44 | 0.44 | 95 | 1006.0 |
| 20260506155325 | 60 | 196 | 7.0 | 11.3 | 0.10 | 0.43 | 0.43 | 95 | 1006.0 |
| 20260506154323 | 60 | 198 | 6.1 | 11.3 | 0.13 | 0.42 | 0.42 | 95 | 1006.0 |
| 20260506153323 | 60 | 239 | 5.2 | 9.6 | 0.15 | 0.41 | 0.41 | 96 | 1005.9 |
| 20260506152341 | 60 | 213 | 3.5 | 5.2 | 0.18 | 0.40 | 0.40 | 96 | 1006.1 |
| 20260506151338 | 60 | 215 | 4.3 | 7.0 | 0.17 | 0.38 | 0.38 | 95 | 1006.3 |
| 20260506150321 | 60 | 215 | 1.7 | 7.8 | 0.17 | 0.36 | 0.36 | 95 | 1006.4 |
| 20260506145321 | 60 | 217 | 3.5 | 9.6 | 0.15 | 0.33 | 0.33 | 95 | 1006.3 |
| 20260506144345 | 60 | 196 | 4.3 | 8.7 | 0.14 | 0.29 | 0.29 | 95 | 1006.4 |
| 20260506143321 | 60 | 220 | 5.2 | 9.6 | 0.12 | 0.26 | 0.26 | 94 | 1006.3 |
| 20260506142324 | 60 | 229 | 5.2 | 11.3 | 0.09 | 0.22 | 0.22 | 94 | 1006.1 |
| 20260506141323 | 60 | 213 | 6.1 | 11.3 | 0.10 | 0.20 | 0.20 | 93 | 1006.2 |
| 20260506140340 | 60 | 203 | 5.2 | 11.3 | 0.11 | 0.19 | 0.19 | 94 | 1006.2 |
| 20260506135321 | 60 | 223 | 4.3 | 12.2 | 0.12 | 0.18 | 0.18 | 93 | 1006.4 |
| 20260506134325 | 60 | 200 | 5.2 | 8.7 | 0.11 | 0.15 | 0.15 | 93 | 1020.6 |
| 20260506133322 | 60 | 234 | 6.1 | 11.3 | 0.11 | 0.14 | 0.14 | 93 | 1004.7 |
| 20260506132345 | 59 | 197 | 3.5 | 8.7 | 0.11 | 0.13 | 0.13 | 93 | 965.7 |
| 20260506131343 | 59 | 183 | 1.7 | 4.3 | 0.09 | 0.10 | 0.10 | 94 | 1006.7 |
| 20260506130340 | 59 | 185 | 3.5 | 7.8 | 0.08 | 0.08 | 0.08 | 93 | 1006.7 |
| 20260506125339 | 60 | 195 | 0.0 | 2.6 | 0.06 | 0.06 | 0.06 | 92 | 1006.9 |
| 20260506124321 | 60 | 197 | 0.0 | 6.1 | 0.04 | 0.04 | 0.04 | 91 | 1007.0 |
| 20260506123325 | 61 | 304 | 0.0 | 7.8 | 0.03 | 0.03 | 0.03 | 89 | 1007.0 |
| 20260506122324 | 61 | 185 | 7.0 | 10.4 | 0.02 | 0.02 | 0.02 | 87 | 944.9 |
| 20260506121323 | 60 | 190 | 4.3 | 8.7 | 0.01 | 0.01 | 0.01 | 89 | 1008.4 |
| 20260506120322 | 59 | 231 | 0.0 | 0.0 | 0.00 | 0.00 | 0.00 | 91 | 1006.8 |
| 20260506115323 | 59 | 242 | 0.0 | 0.0 | 0.00 | 0.00 | 0.00 | 90 | 1006.4 |
| 20260506114340 | 59 | 242 | 0.0 | 0.0 | 0.00 | 0.00 | 0.00 | 90 | 1006.5 |
| 20260506113323 | 60 | 243 | 0.0 | 0.0 | 0.00 | 0.00 | 0.00 | 87 | 1006.6 |
| 20260506112321 | 61 | 242 | 0.0 | 0.0 | 0.00 | 0.00 | 0.00 | 81 | 1006.6 |
| 20260506111339 | 62 | 243 | 0.0 | 0.0 | 0.00 | 0.00 | 0.00 | 76 | 1006.3 |
| 20260506110333 | 63 | 242 | 0.0 | 0.0 | 0.00 | 0.00 | 0.00 | 73 | 1006.2 |
| 20260506105351 | 64 | 243 | 0.0 | 0.0 | 0.00 | 0.00 | 0.00 | 70 | 1007.7 |
| 20260506104349 | 65 | 243 | 0.0 | 0.0 | 0.00 | 0.00 | 0.00 | 68 | 1006.0 |
| 20260506103327 | 66 | 243 | 1.7 | 6.1 | 0.00 | 0.00 | 0.00 | 66 | 1005.9 |
| 20260506102347 | 67 | 226 | 2.6 | 10.4 | 0.00 | 0.00 | 0.00 | 65 | 1007.6 |
| 20260506101323 | 67 | 225 | 6.1 | 12.2 | 0.00 | 0.00 | 0.00 | 64 | 1006.4 |
| 20260506100347 | 67 | 203 | 7.8 | 13.0 | 0.00 | 0.00 | 0.00 | 64 | 1005.3 |
| 20260506095343 | 67 | 201 | 7.8 | 13.0 | 0.00 | 0.00 | 0.00 | 63 | 1008.5 |
| 20260506094322 | 68 | 231 | 7.0 | 13.9 | 0.00 | 0.00 | 0.00 | 62 | 1005.7 |
| 20260506093325 | 67 | 196 | 6.1 | 13.0 | 0.00 | 0.00 | 0.00 | 62 | 1005.6 |
| 20260506092326 | 66 | 180 | 2.6 | 9.6 | 0.00 | 0.00 | 0.00 | 64 | 1005.6 |
| 20260506091344 | 64 | 222 | 0.0 | 6.1 | 0.00 | 0.00 | 0.00 | 68 | 1006.6 |
| 20260506090322 | 63 | 236 | 0.0 | 6.1 | 0.00 | 0.00 | 0.00 | 68 | 1006.1 |
| 20260506085320 | 64 | 246 | 0.0 | 8.7 | 0.00 | 0.00 | 0.00 | 67 | 1005.7 |
| 20260506084323 | 65 | 241 | 1.7 | 7.0 | 0.00 | 0.00 | 0.00 | 65 | 1005.8 |
| 20260506083326 | 64 | 234 | 0.9 | 5.2 | 0.00 | 0.00 | 0.00 | 66 | 1005.8 |
| 20260506082324 | 65 | 230 | 3.5 | 6.1 | 0.00 | 0.00 | 0.00 | 63 | 1005.7 |
| 20260506081321 | 68 | 254 | 2.6 | 7.8 | 0.00 | 0.00 | 0.00 | 57 | 1005.9 |
| 20260506080322 | 68 | 217 | 2.6 | 7.0 | 0.00 | 0.00 | 0.00 | 56 | 1005.8 |